Glens Falls, NY

6:03 PM EDT on October 15, 2019 (GMT -0400)
Bennett Memorial

Weather History for KGFL - August, 2019

Change the Weather History Date:

Sunday, August 11, 2019

  Actual Average Record
Temperature  
Mean Temperature 63 °F 68 °F  
Max Temperature 81 °F 80 °F 97 °F (1944)
Min Temperature 44 °F 56 °F 43 °F (1976)
Degree Days  
Heating Degree Days 2 1  
Month to date heating degree days 5 11  
Since 1 June heating degree days 75 122  
Since 1 July heating degree days 5 32  
Cooling Degree Days 0 4  
Month to date cooling degree days 37 44  
Year to date cooling degree days 333 264  
Since 1 June cooling degree days 324 252  
Growing Degree Days 12 (Base 50)    
Moisture  
Dew Point 49 °F    
Average Humidity 68    
Maximum Humidity 100    
Minimum Humidity 35    
Precipitation  
Precipitation 0.00 in 0.12 in 1.78 in (1983)
Month to date precipitation 0.15 1.43  
Year to date precipitation 26.09 23.56  
Sea Level Pressure  
Sea Level Pressure 29.95 in    
Wind  
Wind Speed 4 mph (WSW)    
Max Wind Speed 15 mph    
Max Gust Speed 20 mph    
Visibility 5 miles    
Events Fog    
T = Trace of Precipitation, MM = Missing Value Source: NWS Daily Summary

Daily Weather History Graph

Daily Weather History Graph

Search for Another Location

Airport or City:

Astronomy

Aug. 11, 2019 Rise Set
Actual Time 5:54 AM EDT 8:03 PM EDT
Civil Twilight 5:23 AM EDT 8:34 PM EDT
Nautical Twilight 4:44 AM EDT 9:13 PM EDT
Astronomical Twilight 4:02 AM EDT 9:55 PM EDT
Moon 5:44 PM EDT (8/11) 2:09 AM EDT (8/11)
Length of Visible Light 15h 11m
Length of Day
14h 08m
Waxing Gibbous, 87% of the Moon is Illuminated
Aug 11
Waxing Gibbous
Aug 15
Full
Aug 23
Last Quarter
Aug 30
New
Sep 5
First Quarter

Hourly Weather History & Observations

Time (EDT) Temp. Dew Point Humidity Pressure Visibility Wind Dir Wind Speed Gust Speed Precip Events Conditions
12:02 AM 51.1 °F 51.1 °F 100% 29.91 in 3.0 mi SW 4.6 mph - N/A   Clear
12:09 AM 52.0 °F 51.1 °F 97% 29.92 in 2.0 mi Calm Calm - N/A   Clear
12:19 AM 52.0 °F 51.1 °F 97% 29.92 in 10.0 mi East 3.5 mph - N/A   Clear
12:37 AM 50.0 °F 48.9 °F 96% 29.93 in 1.8 mi Calm Calm - N/A   Clear
12:53 AM 52.0 °F 50.0 °F 93% 29.93 in 1.2 mi Calm Calm - N/A   Clear
12:57 AM 51.1 °F 50.0 °F 96% 29.92 in 3.0 mi Calm Calm - N/A   Clear
1:23 AM 48.9 °F 48.9 °F 100% 29.92 in 1.8 mi Calm Calm - N/A   Clear
1:31 AM 50.0 °F 48.0 °F 93% 29.92 in 3.0 mi Calm Calm - N/A   Clear
1:37 AM 50.0 °F 48.9 °F 96% 29.93 in 1.5 mi Calm Calm - N/A   Clear
1:39 AM 50.0 °F 48.9 °F 96% 29.93 in 1.0 mi Calm Calm - N/A   Mist
1:53 AM 48.9 °F 48.0 °F 97% 29.93 in 0.8 mi Calm Calm - N/A   Mist
1:58 AM 50.0 °F 48.9 °F 96% 29.93 in 1.2 mi Calm Calm - N/A   Partly Cloudy
2:02 AM 50.0 °F 48.9 °F 96% 29.93 in 5.0 mi Calm Calm - N/A   Partly Cloudy
2:37 AM 48.9 °F 48.0 °F 97% 29.92 in 0.5 mi Calm Calm - N/A Fog Fog
2:53 AM 48.0 °F 46.9 °F 96% 29.93 in 0.8 mi Calm Calm - N/A   Mist
2:56 AM 48.0 °F 46.9 °F 96% 29.93 in 2.0 mi Calm Calm - N/A   Partly Cloudy
3:03 AM 48.9 °F 48.0 °F 97% 29.93 in 10.0 mi Calm Calm - N/A   Partly Cloudy
3:11 AM 48.0 °F 46.9 °F 96% 29.93 in 1.8 mi Calm Calm - N/A   Clear
3:24 AM 48.9 °F 46.9 °F 93% 29.93 in 4.0 mi Calm Calm - N/A   Clear
3:53 AM 48.0 °F 46.9 °F 96% 29.94 in 5.0 mi Calm Calm - N/A   Clear
4:18 AM 45.0 °F 44.1 °F 97% 29.94 in 1.8 mi Calm Calm - N/A   Clear
4:27 AM 48.0 °F 46.9 °F 96% 29.94 in 3.0 mi Calm Calm - N/A   Clear
4:41 AM 48.0 °F 46.9 °F 96% 29.94 in 6.0 mi Calm Calm - N/A   Partly Cloudy
4:44 AM 46.0 °F 46.0 °F 100% 29.94 in 1.8 mi Calm Calm - N/A   Partly Cloudy
4:47 AM 46.4 °F 44.6 °F 93% 29.94 in 0.8 mi Calm Calm - N/A   Mist
4:53 AM 46.0 °F 46.0 °F 100% 29.95 in 0.5 mi Calm Calm - N/A Fog Fog
4:59 AM 48.0 °F 46.0 °F 93% 29.95 in 2.0 mi Calm Calm - N/A   Partly Cloudy
5:06 AM 46.9 °F 46.0 °F 97% 29.95 in 8.0 mi Calm Calm - N/A   Partly Cloudy
5:25 AM 45.0 °F 45.0 °F 100% 29.96 in 1.5 mi Calm Calm - N/A   Scattered Clouds
5:28 AM 44.1 °F 44.1 °F 100% 29.96 in 0.8 mi Calm Calm - N/A   Mist
5:46 AM 46.0 °F 45.0 °F 96% 29.96 in 1.5 mi Calm Calm - N/A   Partly Cloudy
5:48 AM 46.4 °F 44.6 °F 93% 29.96 in 3.0 mi Calm Calm - N/A   Partly Cloudy
5:53 AM 46.0 °F 45.0 °F 96% 29.97 in 10.0 mi Calm Calm - N/A   Partly Cloudy
5:59 AM 46.0 °F 45.0 °F 96% 29.97 in 1.0 mi Calm Calm - N/A   Mist
6:04 AM 45.0 °F 44.1 °F 97% 29.97 in 0.2 mi Calm Calm - N/A Fog Fog
6:26 AM 46.0 °F 46.0 °F 100% 29.99 in 0.5 mi Calm Calm - N/A Fog Fog
6:38 AM 46.9 °F 46.0 °F 97% 29.99 in 10.0 mi Calm Calm - N/A   Clear
6:53 AM 46.9 °F 46.0 °F 97% 30.00 in 10.0 mi Calm Calm - N/A   Clear
7:03 AM 48.9 °F 46.9 °F 93% 29.99 in 2.5 mi Calm Calm - N/A   Scattered Clouds
7:06 AM 48.9 °F 48.0 °F 97% 29.99 in 1.0 mi Calm Calm - N/A   Mist
7:10 AM 48.9 °F 48.0 °F 97% 30.00 in 0.2 mi Calm Calm - N/A Fog Fog
7:23 AM 52.0 °F 51.1 °F 97% 30.01 in 3.0 mi Calm Calm - N/A   Mostly Cloudy
7:34 AM 53.1 °F 52.0 °F 96% 30.00 in 10.0 mi Calm Calm - N/A   Scattered Clouds
7:53 AM 55.0 °F 53.1 °F 93% 30.01 in 10.0 mi Calm Calm - N/A   Clear
8:53 AM 61.0 °F 55.9 °F 83% 30.00 in 10.0 mi SSE 3.5 mph - N/A   Clear
9:53 AM 66.9 °F 57.0 °F 70% 30.00 in 10.0 mi South 6.9 mph - N/A   Clear
10:53 AM 72.0 °F 53.1 °F 51% 29.98 in 10.0 mi WNW 9.2 mph - N/A   Partly Cloudy
11:53 AM 73.0 °F 52.0 °F 48% 29.97 in 10.0 mi Calm Calm - N/A   Mostly Cloudy
12:53 PM 77.0 °F 51.1 °F 40% 29.96 in 10.0 mi Variable 5.8 mph - N/A   Overcast
1:53 PM 77.0 °F 50.0 °F 39% 29.95 in 10.0 mi West 10.4 mph - N/A   Overcast
2:53 PM 79.0 °F 48.0 °F 34% 29.94 in 10.0 mi NW 11.5 mph 16.1 mph N/A   Partly Cloudy
3:53 PM 79.0 °F 48.9 °F 35% 29.93 in 10.0 mi Variable 5.8 mph - N/A   Scattered Clouds
4:53 PM 80.1 °F 50.0 °F 35% 29.93 in 10.0 mi West 6.9 mph - N/A   Mostly Cloudy
5:53 PM 79.0 °F 50.0 °F 36% 29.93 in 10.0 mi NW 11.5 mph - N/A   Partly Cloudy
6:53 PM 77.0 °F 50.0 °F 39% 29.93 in 10.0 mi WNW 5.8 mph - N/A   Partly Cloudy
7:53 PM 70.0 °F 53.1 °F 55% 29.93 in 10.0 mi West 4.6 mph - N/A   Clear
8:53 PM 64.0 °F 54.0 °F 70% 29.95 in 10.0 mi WSW 5.8 mph - N/A   Clear
9:53 PM 61.0 °F 53.1 °F 75% 29.97 in 10.0 mi SW 4.6 mph - N/A   Clear
10:53 PM 62.1 °F 53.1 °F 72% 29.96 in 10.0 mi Calm Calm - N/A   Clear
11:53 PM 57.9 °F 54.0 °F 87% 29.96 in 10.0 mi Calm Calm - N/A   Clear